Simultaneous Nadir Overpasses (SNOs) Predictions

Prediction of SNOs between FY3D and TERRA Satellite Orbit:

Table of predicted SNOs for the next 14.0 days since TLE Epoch: 12/9/2023
Index Date (FY3D) Time (FY3D) Lat,Lon (FY3D) SZA (FY3D ) Date (TERRA) Time (TERRA) Lat,Lon (TERRA) SZA (TERRA ) Distance(km) Time Diff (sec)
1 12/10/2023 18:59:03 -74.58, 75.29 82.57 12/10/2023 18:59:38 -74.58, 75.24 82.57 1.39 35
2 12/10/2023 19:49:49 74.53,-117.27 97.39 12/10/2023 19:49:00 74.54,-117.19 97.40 2.48 49
3 12/13/2023 06:12:25 -75.17, -94.65 81.79 12/13/2023 06:13:32 -75.08, -92.05 81.87 74.88 67
4 12/13/2023 07:02:59 74.55, 74.42 97.61 12/13/2023 07:03:03 74.58, 74.36 97.63 3.31 4
5 12/13/2023 07:53:40 -74.40,-117.85 82.55 12/13/2023 07:52:27 -74.49,-118.20 82.47 14.25 73
6 12/15/2023 18:16:10 74.63, -94.04 97.83 12/15/2023 18:17:05 74.65, -94.00 97.85 2.71 55
7 12/15/2023 19:06:53 -74.57, 73.45 82.24 12/15/2023 19:06:29 -74.56, 73.44 82.25 0.85 24
8 12/18/2023 06:20:03 -74.60, -94.88 82.11 12/18/2023 06:20:31 -74.62, -94.97 82.09 3.28 28
9 12/18/2023 07:10:49 74.56, 72.53 97.86 12/18/2023 07:09:53 74.57, 72.59 97.87 2.51 56
10 12/20/2023 17:33:19 -74.92, 95.96 81.74 12/20/2023 17:34:30 -74.81, 96.96 81.85 31.50 71
11 12/20/2023 18:23:59 74.60, -95.83 97.95 12/20/2023 18:23:55 74.61, -95.86 97.96 1.71 4



Historial Predications of SNOs between FY3D and TERRA
